Torna al catalogo

STARLINK-32665

AttivoComunicazioniVLEO
NORAD 62203·PAYLOAD·🇺🇸 United States

Lanciato Dec 4, 2024 da Cape Canaveral Space Force Station

Loading…

Prossimi Passaggi (prossime 24 ore)

TLE

AggiornatoSource: CelesTrak SupGP

Epoca: Sep 14, 2026, 20:47 UTC

1 62203C 24229M   26257.86645833 -.00001682  00000+0 -60942-4 0  2577
2 62203  43.0026 282.3599 0001665 273.5443  76.3124 15.27576467    18

Traccia STARLINK-32665 in tempo reale con AllMySat

Download on the App Store